Powrót do katalogu

CZ-6A DEB

AktywnyPO
NORAD 54996·DEBRIS·🇨🇳 China

Wystrzelony Nov 11, 2022 z Taiyuan Satellite Launch Center

Loading…

Następne Przeloty (najbliższe 24 godziny)

TLE

ŚwieżeSource: Space-Track

Epoka: Sep 14, 2026, 10:34 UTC

1 54996U 22151UM  26257.44027927  .00008196  00000-0  11117-2 0  9998
2 54996  98.6068 330.5072 0060680 346.5567  13.4022 14.77895526202581

Śledź CZ-6A DEB w czasie rzeczywistym z AllMySat

Download on the App Store